Weather History for KLAM - April, 2013

Change the Weather History Date:

Tuesday, April 2, 2013

  Actual Average Record
Temperature  
Mean Temperature 48 °F -  
Max Temperature 57 °F 52 °F 75 °F (2011)
Min Temperature 38 °F 28 °F 16 °F (1949)
Degree Days  
Heating Degree Days 18    
Moisture  
Dew Point 17 °F    
Average Humidity 32    
Maximum Humidity 57    
Minimum Humidity 11    
Precipitation  
Precipitation 0.00 in - - ()
Sea Level Pressure  
Sea Level Pressure 30.00 in    
Wind  
Wind Speed 9 mph (SSW)    
Max Wind Speed 31 mph    
Max Gust Speed 44 mph    
Visibility 10 miles    
Events      
Averages and records for this station are not official NWS values.
T = Trace of Precipitation, MM = Missing Value Source: NWS Daily Summary

Daily Weather History Graph

Daily Weather History Graph

Search for Another Location

Airport or City:

Trip Planner

Search our weather history database for the weather conditions in past years. The results will help you decide how hot, cold, wet, or windy it might be!

Date:

Astronomy

Apr. 02, 2013 Rise Set
Actual Time 6:49 AM MDT 7:27 PM MDT
Civil Twilight 6:23 AM MDT 7:53 PM MDT
Nautical Twilight 5:53 AM MDT 8:24 PM MDT
Astronomical Twilight 5:22 AM MDT 8:55 PM MDT
Moon 1:27 AM MDT (4/2) 11:51 AM MDT (4/2)
Length of Visible Light 13h 30m
Length of Day
12h 38m
Waning Gibbous, 55% of the Moon is Illuminated
Apr 2
Waning Gibbous
Apr 2
Last Quarter
Apr 10
New
Apr 18
First Quarter
Apr 25
Full

Hourly Weather History & Observations

Time (MDT) Temp. Windchill Dew Point Humidity Pressure Visibility Wind Dir Wind Speed Gust Speed Precip Events Conditions
12:15 AM 55.6 °F - 8.8 °F 15% 30.03 in 10.0 mi South 3.5 mph - N/A   Clear
12:35 AM 54.7 °F - 9.0 °F 16% 30.03 in 10.0 mi Calm Calm - N/A   Clear
12:55 AM 54.5 °F - 8.4 °F 16% 30.03 in 10.0 mi SSW 6.9 mph - N/A   Clear
1:15 AM 53.8 °F - 8.6 °F 16% 30.03 in 10.0 mi South 11.5 mph - N/A   Clear
1:35 AM 52.9 °F - 8.6 °F 17% 30.03 in 10.0 mi WSW 12.7 mph 17.3 mph N/A   Clear
1:55 AM 52.5 °F - 8.4 °F 17% 30.03 in 10.0 mi SW 5.8 mph - N/A   Clear
2:15 AM 51.8 °F - 9.0 °F 18% 30.03 in 10.0 mi SW 6.9 mph - N/A   Clear
2:35 AM 51.8 °F - 8.8 °F 18% 30.02 in 10.0 mi West 6.9 mph - N/A   Clear
2:55 AM 50.7 °F - 8.8 °F 18% 30.02 in 10.0 mi West 10.4 mph - N/A   Clear
3:15 AM 50.7 °F - 9.5 °F 19% 30.02 in 10.0 mi West 9.2 mph - N/A   Clear
3:35 AM 50.2 °F - 10.0 °F 20% 30.01 in 10.0 mi West 12.7 mph - N/A   Clear
3:55 AM 49.6 °F - 11.7 °F 22% 30.01 in 10.0 mi West 11.5 mph - N/A   Clear
4:15 AM 49.3 °F - 12.0 °F 22% 30.01 in 10.0 mi West 8.1 mph - N/A   Clear
4:35 AM 48.4 °F - 13.1 °F 24% 30.01 in 10.0 mi WSW 9.2 mph - N/A   Clear
4:55 AM 48.6 °F - 13.1 °F 24% 30.00 in 10.0 mi WSW 10.4 mph - N/A   Clear
5:15 AM 48.2 °F - 13.3 °F 25% 30.01 in 10.0 mi SW 10.4 mph - N/A   Clear
5:35 AM 45.3 °F 40.6 °F 14.5 °F 29% 30.01 in 10.0 mi SSW 9.2 mph - N/A   Clear
5:55 AM 44.2 °F 39.7 °F 14.7 °F 30% 30.00 in 10.0 mi SSW 8.1 mph - N/A   Clear
6:15 AM 43.3 °F 38.6 °F 15.1 °F 32% 30.00 in 10.0 mi South 8.1 mph - N/A   Clear
6:35 AM 41.9 °F 35.9 °F 17.6 °F 38% 30.01 in 10.0 mi South 10.4 mph - N/A   Clear
6:55 AM 40.8 °F 35.6 °F 19.8 °F 43% 30.01 in 10.0 mi SSW 8.1 mph - N/A   Clear
7:15 AM 39.6 °F 33.5 °F 21.4 °F 48% 30.01 in 10.0 mi South 9.2 mph - N/A   Clear
7:35 AM 38.5 °F 32.7 °F 23.7 °F 55% 30.02 in 10.0 mi South 8.1 mph - N/A   Clear
7:55 AM 39.2 °F 33.6 °F 25.0 °F 57% 30.03 in 10.0 mi South 8.1 mph - N/A   Clear
8:35 AM 40.6 °F 36.0 °F 26.6 °F 57% 30.03 in 10.0 mi South 6.9 mph - N/A   Clear
8:55 AM 41.9 °F 37.5 °F 26.4 °F 54% 30.04 in 10.0 mi South 6.9 mph - N/A   Clear
9:15 AM 42.8 °F 39.3 °F 26.8 °F 53% 30.03 in 10.0 mi South 5.8 mph - N/A   Clear
9:35 AM 43.3 °F 39.2 °F 27.3 °F 53% 30.03 in 10.0 mi SE 6.9 mph - N/A   Clear
9:55 AM 44.6 °F 42.2 °F 26.6 °F 49% 30.03 in 10.0 mi South 4.6 mph - N/A   Clear
10:15 AM 46.0 °F 41.4 °F 26.1 °F 46% 30.03 in 10.0 mi South 9.2 mph - N/A   Clear
10:35 AM 47.1 °F - 26.4 °F 45% 30.02 in 10.0 mi SSE 10.4 mph 16.1 mph N/A   Clear
10:55 AM 48.7 °F - 25.7 °F 41% 30.02 in 10.0 mi SSE 10.4 mph 16.1 mph N/A   Clear
11:15 AM 49.6 °F - 24.1 °F 37% 30.01 in 10.0 mi South 10.4 mph - N/A   Clear
11:35 AM 50.7 °F - 22.5 °F 33% 30.01 in 10.0 mi South 12.7 mph 18.4 mph N/A   Clear
11:55 AM 51.8 °F - 17.1 °F 25% 30.00 in 10.0 mi South 12.7 mph 24.2 mph N/A   Clear
12:15 PM 52.3 °F - 15.3 °F 23% 29.99 in 10.0 mi South 19.6 mph 26.5 mph N/A   Clear
12:35 PM 53.2 °F - 15.8 °F 23% 29.99 in 10.0 mi South 18.4 mph 24.2 mph N/A   Clear
12:55 PM 53.4 °F - 15.4 °F 22% 29.98 in 10.0 mi South 16.1 mph 25.3 mph N/A   Clear
1:15 PM 53.8 °F - 14.2 °F 21% 29.97 in 10.0 mi SE 18.4 mph 27.6 mph N/A   Clear
1:35 PM 54.9 °F - 14.7 °F 21% 29.96 in 10.0 mi SSE 23.0 mph 28.8 mph N/A   Clear
1:55 PM 56.3 °F - 13.6 °F 19% 29.95 in 10.0 mi SSE 13.8 mph 21.9 mph N/A   Clear
2:15 PM 55.8 °F - 9.5 °F 16% 29.95 in 10.0 mi South 10.4 mph 25.3 mph N/A   Clear
2:35 PM 56.7 °F - 4.8 °F 12% 29.94 in 10.0 mi South 20.7 mph 29.9 mph N/A   Clear
2:55 PM 57.4 °F - 3.4 °F 11% 29.93 in 10.0 mi South 19.6 mph 29.9 mph N/A   Clear
3:15 PM 54.9 °F - 3.7 °F 13% 29.93 in 10.0 mi SSW 15.0 mph 25.3 mph N/A   Scattered Clouds
3:35 PM 54.7 °F - 8.2 °F 16% 29.93 in 10.0 mi West 15.0 mph 26.5 mph N/A   Overcast
3:55 PM 53.4 °F - 11.3 °F 19% 29.93 in 10.0 mi WNW 11.5 mph 16.1 mph N/A   Overcast
4:15 PM 54.1 °F - 10.4 °F 17% 29.93 in 10.0 mi West 16.1 mph 25.3 mph N/A   Scattered Clouds
4:35 PM 54.1 °F - 9.9 °F 17% 29.93 in 10.0 mi WSW 12.7 mph 24.2 mph N/A   Scattered Clouds
4:55 PM 52.2 °F - 15.4 °F 23% 29.95 in 10.0 mi WSW 24.2 mph 39.1 mph N/A   Scattered Clouds
5:15 PM 48.6 °F - 23.5 °F 37% 29.94 in 10.0 mi West 31.1 mph 43.7 mph N/A   Scattered Clouds
5:35 PM 44.6 °F 35.1 °F 27.3 °F 51% 29.93 in 10.0 mi West 27.6 mph 41.4 mph N/A   Clear
5:55 PM 47.1 °F - 22.8 °F 38% 29.94 in 10.0 mi NW 10.4 mph 23.0 mph N/A   Clear
6:15 PM 48.0 °F - 19.4 °F 32% 29.94 in 10.0 mi West 19.6 mph 26.5 mph N/A   Clear
6:35 PM 47.8 °F - 19.8 °F 33% 29.95 in 10.0 mi WNW 17.3 mph 26.5 mph N/A   Clear
6:55 PM 48.0 °F - 18.9 °F 31% 29.96 in 10.0 mi SW 5.8 mph 20.7 mph N/A   Clear
7:15 PM 47.5 °F - 19.4 °F 33% 29.98 in 10.0 mi South 4.6 mph - N/A   Clear
7:35 PM 46.9 °F - 18.9 °F 33% 29.99 in 10.0 mi Calm Calm - N/A   Scattered Clouds
7:55 PM 47.8 °F - 18.5 °F 31% 30.01 in 10.0 mi SW 5.8 mph - N/A   Scattered Clouds
8:15 PM 46.6 °F - 21.2 °F 37% 30.01 in 10.0 mi East 4.6 mph - N/A   Mostly Cloudy
8:35 PM 46.6 °F - 20.1 °F 35% 30.01 in 10.0 mi West 6.9 mph - N/A   Overcast
8:55 PM 47.3 °F - 19.4 °F 33% 30.02 in 10.0 mi West 11.5 mph - N/A   Mostly Cloudy
9:15 PM 46.6 °F - 20.1 °F 35% 30.04 in 10.0 mi West 6.9 mph - N/A   Overcast
9:35 PM 46.4 °F 43.5 °F 20.3 °F 36% 30.05 in 10.0 mi SW 5.8 mph - N/A   Mostly Cloudy
9:55 PM 46.0 °F 43.1 °F 20.3 °F 36% 30.06 in 10.0 mi SSW 5.8 mph - N/A   Overcast
10:15 PM 44.1 °F 39.5 °F 27.0 °F 51% 30.06 in 10.0 mi South 8.1 mph - N/A   Overcast
10:35 PM 43.5 °F 37.9 °F 27.3 °F 53% 30.07 in 10.0 mi South 10.4 mph - N/A   Overcast
10:55 PM 42.8 °F 38.0 °F 27.5 °F 55% 30.07 in 10.0 mi South 8.1 mph - N/A   Overcast
11:15 PM 42.1 °F 35.2 °F 27.0 °F 55% 30.07 in 10.0 mi South 12.7 mph - N/A   Overcast
11:35 PM 41.4 °F 35.7 °F 27.1 °F 57% 30.06 in 10.0 mi SSW 9.2 mph - N/A   Scattered Clouds
11:55 PM 41.4 °F 36.2 °F 26.6 °F 56% 30.06 in 10.0 mi SSW 8.1 mph - N/A   Clear